Regional Weather Roundup
Issued by NWS Jackson, KY

Home | Current Version | Previous Version | Graphics & Text | Print | Product List | Glossary On
Versions: 1 2 3 4 5 6 7 8 9 10 11 12 13 14 15 16 17 18 19 20 21 22 23 24 25 26 27 28 29 30 31 32 33 34 35 36 37 38 39 40 41 42 43 44 45 46 47 48 49 50
000
ASUS43 KJKL 212110
RWRJKL

EAST KENTUCKY HOURLY WEATHER ROUNDUP
NATIONAL WEATHER SERVICE JACKSON KY
400 PM EST FRI NOV 21 2014

NOTE: "FAIR" INDICATES FEW OR NO CLOUDS BELOW 12,000 FEET WITH
NO SIGNIFICANT WEATHER AND/OR OBSTRUCTIONS TO VISIBILITY.

* THESE REPORTS ARE NOT UNDER NWS QUALITY CONTROL AND MAY NOT
  REPORT WEATHER SUCH AS PRECIPITATION AND FOG.

KYZ079-080-083-085-087-088-110-112-115-119-120-212200
...EASTERN KENTUCKY...

CITY           SKY/WX    TMP DP  RH WIND       PRES   REMARKS
JACKSON        SUNNY     40   8  26 E3        30.44S
LONDON         SUNNY     44  11  26 E5        30.42F
SOMERSET*      SUNNY     43  14  31 E7        30.43F
MONTICELLO*    SUNNY     47  16  29 SE3       30.44S
MIDDLESBORO*   SUNNY     47  11  23 CALM      30.42S
HARLAN APT*    CLEAR     45   5  19 CALM      30.40F
BIG SANDY*     CLEAR     38  11  32 CALM      30.45S
MOREHEAD APT*  CLEAR     37   3  23 CALM      30.48S
$$

KYZ035-036-041-042-044-050-067-078-099-212200
...CENTRAL KENTUCKY...

CITY           SKY/WX    TMP DP  RH WIND       PRES   REMARKS
MT STERLING*   SUNNY     37  12  35 CALM      30.47S
FLEMING/MASON* SUNNY     34   8  33 CALM      30.48S
DANVILLE*      SUNNY     37  12  35 E5        30.43F WCI  34
RICHMOND*      SUNNY     41   9  26 NE5       30.43S
LEXINGTON      SUNNY     39  10  30 E8        30.44F WCI  33
FRANKFORT      SUNNY     38  10  31 E8        30.43F WCI  32
$$

KYZ091>093-OHZ055-061-077-WVZ005-015-034-035-042-212200
...SOUTHERN OHIO/WEST VIRGINIA...

CITY           SKY/WX    TMP DP  RH WIND       PRES   REMARKS
COVINGTON      SUNNY     34  11  38 S5        30.46R WCI  30
COLUMBUS       SUNNY     27  11  51 S3        30.49S
DAYTON         SUNNY     30  12  47 SE9       30.45F WCI  22
WILMINGTON     SUNNY     26  11  52 E7        30.46F WCI  18
HUNTINGTON     SUNNY     37   7  28 NE5       30.48S WCI  33
CHARLESTON     SUNNY     35   5  28 CALM      30.48S
PINEVILLE*     SUNNY     35  17  48 MISG      30.48R
BECKLEY        SUNNY     34   6  31 NW7       30.39S WCI  28
BLUEFIELD      SUNNY     36   3  25 W7        30.39R WCI  30
$$

VAZ002-007-008-TNZ017-027-036-066-071-212200
...SOUTHWEST VIRGINIA/EAST TENNESSEE...

CITY           SKY/WX    TMP DP  RH WIND       PRES   REMARKS
WISE*          SUNNY     41   1  19 N3        30.40R
JONESVILLE*    CLEAR     46   7  19 CALM      30.44S
ABINGDON*      SUNNY     43   8  23 N3        30.41R
BRISTOL        SUNNY     46  10  23 CALM      30.43R
KNOXVILLE      SUNNY     51  10  19 N8        30.39F
OAK RIDGE      SUNNY     51  12  21 VRB3      30.42S
CROSSVILLE     SUNNY     52  20  28 N3        30.37F
NASHVILLE      MOSUNNY   52  22  30 E6        30.38F
$$

...KEY TO REMARKS...
VSB - VISIBILITY IN MILES
WCI - WIND CHILL INDEX
HX  - HEAT INDEX

$$



USA.gov is the U.S. government's official web portal to all federal, state and local government web resources and services.